Regional Weather Roundup
Issued by NWS

Home | Current Version | Previous Version | Graphics & Text | Print | Product List | Glossary On
Versions: 1 2 3 4 5 6 7 8 9 10 11 12 13 14 15 16 17 18 19 20 21 22 23 24 25 26 27 28 29 30 31 32 33 34 35 36 37 38 39 40 41 42 43 44 45 46 47 48 49 50
000
ASUS44 KMEG 212310
RWRTN
TENNESSEE HOURLY STATE WEATHER ROUNDUP
NATIONAL WEATHER SERVICE MEMPHIS TN
500 PM CST TUE NOV 21 2017

TNZ002-004-019-021-049-052-054-088>092-220000-
WEST TENNESSEE

CITY           SKY/WX    TMP DP  RH WIND       PRES   REMARKS
MEMPHIS INTL   CLOUDY    57  38  48 SW5       30.01S
NWS MEMPHIS      N/A     55 N/A N/A MISG        N/A
JACKSON        CLOUDY    52  40  63 CALM      30.01S
DYERSBURG      CLOUDY    55  39  54 NW3       30.03R
SOMERVILLE     CLEAR     55  36  47 CALM      29.99F HAZE
COVINGTON      PTCLDY    54  39  58 W5        30.02R
UNION CITY     CLEAR     52  37  58 CALM      30.01S
BOLIVAR        CLEAR     54  36  50 CALM      30.01S
PARIS          CLEAR     50  37  62 CALM      30.01R
HUNTINGDON     CLEAR     52  36  54 CALM      30.00S
LEXINGTON      CLEAR     52  34  50 CALM      30.01S
SELMER         CLEAR     52  37  58 SW3       30.01R
SAVANNAH       CLEAR     50  39  66 CALM      30.01S
$$

TNZ008-025-027-028-033-062-065-066-220000-
NORTH MIDDLE TENNESSEE

CITY           SKY/WX    TMP DP  RH WIND       PRES   REMARKS
NASHVILLE      MOCLDY    56  27  32 W3        30.02R
PORTLAND       CLEAR     54  27  35 CALM      30.00R
CLARKSVILLE    CLOUDY    53  32  44 W5        30.01S
SMYRNA         CLEAR     52  32  46 W3        30.02R
COOKEVILLE     CLEAR     50  39  66 W3        29.98S
GALLATIN       PTCLDY    54  30  40 CALM      30.03R
CROSSVILLE     PTCLDY    54  46  74 VRB5      30.00S
$$

TNZ061-075-076-078-094-096-097-220000-
SOUTH MIDDLE TENNESSEE

CITY           SKY/WX    TMP DP  RH WIND       PRES   REMARKS
FAYETTEVILLE   CLEAR     55  36  47 W5        30.00S
TULLAHOMA      CLEAR     50  36  57 W6        30.00R
WINCHESTER     CLEAR     55  37  50 CALM      30.01S
MCMINNVILLE    CLEAR     55  37  50 CALM      30.00R
COLUMBIA       PTCLDY    52  28  40 SW3       30.00R
SHELBYVILLE    CLEAR     50  34  53 CALM      30.01S
$$

TNZ017-018-042-046-047-220000-
NORTHEAST TENNESSEE

CITY           SKY/WX    TMP DP  RH WIND       PRES   REMARKS
TRI CITIES     MOCLDY    57  46  66 W3        30.00S
ELIZABETHTON   MOCLDY    50  45  81 CALM      30.01S
$$

TNZ012-013-036-069-073-074-220000-
CENTRAL EAST TENNESSEE

CITY           SKY/WX    TMP DP  RH WIND       PRES   REMARKS
KNOXVILLE      PTCLDY    54  48  80 CALM      30.00F
OAK RIDGE      MOCLDY    55  48  77 CALM      30.01F
DOWNTOWN KNOXV PTCLDY    52  46  82 CALM      30.01S
GATLINBURG     CLOUDY    54  45  71 CALM      30.01S
MORRISTOWN     PTCLDY    55  45  67 SW3       30.01R
JACKSBORO      MOCLDY    57  48  72 VRB7      30.02S
$$

TNZ083-085-099-220000-
SOUTHEAST TENNESSEE

CITY           SKY/WX    TMP DP  RH WIND       PRES   REMARKS
CHATTANOOGA    PTCLDY    56  49  77 CALM      30.00F
DAYTON         CLOUDY    55  52  88 CALM      29.99F
$$

SKY/WX REPORTED AS FAIR MEANS FEW OR NO CLOUDS BELOW
12 THOUSAND FEET.





USA.gov is the U.S. government's official web portal to all federal, state and local government web resources and services.